map of TCA home
TCA - Airport
Location
City:  Tennant Creek, Northern Territory, Australia
ICAO:YTNK
IATA:TCA

Details
Type:Airport (Aerodrome, Airfield)
Latitude:1938'04"S (-19.634443)
Longitude:13411'00"E (134.183333)
Datum:WGS 1984
Elevation:1236 ft (377 m)
Variation:4.21E (WMM2015 magnetic declination)
-0.07 annual change
Runways:2
Longest:6427 × 98 ft (1959 × 30 m), paved

Time
Time Zone:UTC+9:30
Local Time:

Weather
METAR:YTNK 171300Z AUTO 04007KT 9999 // NCD 27/05 Q1014
TAF:YTNK 170113Z 1702/1714 07010KT CAVOK

Related Locations
Nearby:
Farthest:BGI: 11432 mi / 18398 km
Bridgetown [Grantley Adams Intl], BB

Find:

   beyond  
but within

Other Information
Maps:
NOTAMs:
Links:
Sources:

  
flag of Australia
flag of Northern Territory
  

Sectional Chart

Flight Planning
at skyvector.com

Satellite Image

Google Maps Satellite view

 

Copyright © 2004-2017 Karl L. Swartz. All rights reserved.
The Great Circle Mapper name and logo are trademarks of the Great Circle Mapper.
All other trademarks mentioned herein belong to their respective owners.
Please see credits for attibutions and further copyright information.

  Follow gcmap on Facebook Follow gcmap on Twitter Follow gcmap on Google+ GCmap on LinkedIn

hCard Microformat

Geo Microformat